Regional Weather Roundup
Issued by NWS New Orleans/Baton Rouge, LA

Home | Current Version | Previous Version | Text Only | Print | Product List | Glossary On
Versions: 1 2 3 4 5 6 7 8 9 10 11 12 13 14 15 16 17 18 19 20 21 22 23 24 25 26 27 28 29 30 31 32 33 34 35 36 37 38 39 40 41 42 43 44 45 46 47 48 49 50
000
ASUS44 KLIX 050310
RWRLIX
NEW ORLEANS REGIONAL WEATHER ROUNDUP
NATIONAL WEATHER SERVICE NEW ORLEANS LA
900 PM CST WED MAR 04 2015

NOTE: "FAIR" INDICATES FEW OR NO CLOUDS BELOW 12,000 FEET WITH NO
      SIGNIFICANT WEATHER AND/OR OBSTRUCTIONS TO VISIBILITY.
      SKY/WX - SKY CONDITION AND SIGNIFICANT WEATHER.
      TMP - AIR TEMPERATURE.     DP    - DEWPOINT TEMPERATURE.
      RH  - RELATIVE HUMIDITY.   PRES  - PRESSURE.
      HI  - HEAT INDEX.          WCI   - WIND CHILL INDEX.

*  THESE STATIONS ARE NOT NWS OR FAA STATIONS AND ARE NOT UNDER
   NWS QUALITY CONTROL.

LAZ038-040-048-061>063-065>067-069-050400-
SOUTHEAST LOUISIANA

CITY           SKY/WX    TMP DP  RH WIND       PRES   REMARKS
N.O. AUDUBON     N/A     73  73 100 MISG        N/A
N.O. INTL ARPT PTCLDY    72  68  87 S8        29.93R
N.O. LAKEFRONT PTCLDY    74  69  85 S10       29.94R
SLIDELL        CLOUDY    71  70  96 S6        29.93R
BATON ROUGE    CLOUDY    74  68  81 S10       29.91R
BOOTHVILLE     PTCLDY    71  70  96 S9        29.96R
BELLE CHASSE   MOCLDY    73  68  84 S7        29.93R
BOGALUSA*        N/A     75  67  77 SW9       29.93R
GALLIANO*      PTCLDY    75  71  87 S10G18    29.94S
NEW ROADS*     NOT AVBL
GONZALES*      NOT AVBL
HAMMOND*       NOT AVBL
HOUMA*         MOCLDY    73  70  92 S7        29.93R
PORT FOURCHON* NOT AVBL

$$

MSZ070-080>082-050400-
SOUTHERN MISSISSIPPI

CITY           SKY/WX    TMP DP  RH WIND       PRES   REMARKS
MCCOMB         CLOUDY    73  65  75 S10       29.90R
GULFPORT       CLOUDY    67  65  93 S5        29.94R FOG
BILOXI         MOCLDY    67  67 100 SW8       29.94S
PASCAGOULA     CLOUDY    70  69  97 S6        29.95R
STENNIS ARPT*  PTCLDY    66  64  94 S6        29.94R FOG

$$

COASTAL OBSERVATIONS
LAKE AND NEARSHORE STATIONS

STATION/POSITION TIME  TEMP    WIND        PRES    WAVE
                       AIR SEA DIR/SP/G            HT/PER
                 (UTC) (F)     (DEG/KT/KT) (MB)    (FT/S)
PASCAGOULA       0300   67     180/  5/  9 1013.8
WAVELAND YACHT   0300   67 59  190/  7/ 10 1013.6
GRAND ISLE       0300   70 66  170/  4/  6 1014.5
SOUTHWEST PASS   0300   68 47  180/  8/  9 1014.7
NEW CANAL        0300   74     200/  8/ 12 1014.0
SHELL BEACH      0300   70 63  160/  6/  9 1013.9

OFFSHORE STATIONS

STATION/POSITION TIME  TEMP    WIND        PRES    WAVE
                       AIR SEA DIR/SP/G            HT/PER
                 (UTC) (F)     (DEG/KT/KT) (MB)    (FT/S)

$$




USA.gov is the U.S. government's official web portal to all federal, state and local government web resources and services.